Hourly Data Report for October 10, 2013

All times are specified in Local Standard Time (LST). Add 1 hour to adjust for Daylight Saving Time where and when it is observed.

KUGAARUK CLIMATE
NUNAVUT

68°32'15.060" N
89°47'47.020" W
15.80 m
2303094
71407
NBB

Download Data

Hourly Data (October 2013)
Hourly Data Report for October 10, 2013
Temp Definition
°C
Dew Point Temp Definition
°C
Rel Hum Definition
%
Wind Dir Definition
10's deg

Wind Spd Definition
km/h
Visibility Definition
km
Stn Press Definition
kPa
Hmdx Definition


Wind Chill Definition


Weather Definition


TIME
00:00 -9.4 -11.3 86 8 4   101.41   -12 LegendNANA
01:00 -9.1 -11.2 85 4 6   101.44   -12 LegendNANA
02:00 -6.9 -9.4 82 21 9   101.45   -11 LegendNANA
03:00 -6.6 -9.7 79 21 17   101.43   -13 LegendNANA
04:00 -6.7 -9.5 80 18 7   101.42   -10 LegendNANA
05:00 -5.9 -8.7 81 20 13   101.43   -11 LegendNANA
06:00 -5.6 -8.9 78 20 15   101.45   -11 LegendNANA
07:00 -5.5 -8.6 79 19 15   101.41   -11 LegendNANA
08:00 -5.3 -8.7 77 20 11   101.43   -10 LegendNANA
09:00 -5.1 -8.7 76 19 15   101.46   -11 LegendNANA
10:00 -4.5 -8.4 74 19 9   101.44   -8 LegendNANA
11:00 -4.2 -8.0 75 17 15   101.41   -10 LegendNANA
12:00 -3.7 -8.0 72 17 13   101.41   -9 LegendNANA
13:00 -3.2 -7.1 74 16 13   101.39   -8 LegendNANA
14:00 -2.7 -6.5 75 16 17   101.35   -8 LegendNANA
15:00 -2.4 -5.9 77 15 22   101.28   -9 LegendNANA
16:00 -2.7 -5.6 80 15 32   101.23   -10 LegendNANA
17:00 -2.3 -4.8 83 15 30   101.21   -9 LegendNANA
18:00 -2.0 -4.3 84 15 30   101.18   -9 LegendNANA
19:00 -1.8 -4.0 85 14 30   101.14   -9 LegendNANA
20:00 -1.8 -3.5 88 13 24   101.11   -8 LegendNANA
21:00 -1.7 -3.5 87 15 33   101.04   -9 LegendNANA
22:00 -1.4 -3.1 88 15 35   100.96   -9 LegendNANA
23:00 -1.2 -2.9 88 15 35   100.89   -9 LegendNANA

Notes on Data Quality.

Legend

  • E = Estimated
  • M = Missing
  • NA = Not Available
  • ‡ = Partner data that is not subject to review by the National Climate Archives
Date modified: